This is the latest recevied weather packets stored in our database for station/object WA1TYB-13. If no packets are shown the sender has not sent any weather packets the latest 1 day(s).
| Time | Temp. | Humidity | Pressure | Rain* | Wind** | Luminosity | Snow |
|---|---|---|---|---|---|---|---|
| 1778016586 | 9.44° C | 37% | 1019.3 hPa | 0 mm | 4.02 m/s, 16° | 476 W/m² | - |
| 1778016283 | 9.44° C | 38% | 1019.5 hPa | 0 mm | 4.47 m/s, 345° | 507 W/m² | - |
| 1778015979 | 8.89° C | 42% | 1019.4 hPa | 0 mm | 4.92 m/s, 18° | 327 W/m² | - |
| 1778015677 | 8.89° C | 36% | 1019.4 hPa | 0 mm | 3.58 m/s, 3° | 315 W/m² | - |
| 1778015373 | 8.89° C | 41% | 1019.3 hPa | 0 mm | 3.58 m/s, 358° | 321 W/m² | - |
| 1778015071 | 8.89° C | 42% | 1019.3 hPa | 0 mm | 4.92 m/s, 46° | 350 W/m² | - |
| 1778014767 | 10° C | 43% | 1019.3 hPa | 0 mm | 3.58 m/s, 22° | 375 W/m² | - |
| 1778014466 | 10° C | 41% | 1019.3 hPa | 0 mm | 4.47 m/s, 16° | 479 W/m² | - |
| 1778014162 | 9.44° C | 40% | 1019.5 hPa | 0 mm | 6.26 m/s, 17° | 582 W/m² | - |
| 1778013860 | 9.44° C | 39% | 1019.1 hPa | 0 mm | 4.92 m/s, 357° | 503 W/m² | - |
| 1778013557 | 8.89° C | 40% | 1019.3 hPa | 0 mm | 4.02 m/s, 335° | 378 W/m² | - |
| 1778013253 | 9.44° C | 39% | 1019 hPa | 0 mm | 3.13 m/s, 0° | 363 W/m² | - |
| 1778012950 | 9.44° C | 33% | 1019.1 hPa | 0 mm | 1.34 m/s, 358° | 485 W/m² | - |
| 1778012646 | 9.44° C | 35% | 1019.1 hPa | 0 mm | 4.47 m/s, 354° | 313 W/m² | - |
| 1778012343 | 8.89° C | 37% | 1019.1 hPa | 0 mm | 1.34 m/s, 20° | 363 W/m² | - |
| 1778012040 | 8.89° C | 36% | 1019.4 hPa | 0 mm | 3.13 m/s, 358° | 361 W/m² | - |
| 1778011738 | 8.89° C | 39% | 1019.1 hPa | 0 mm | 1.34 m/s, 323° | 299 W/m² | - |
| 1778011435 | 8.89° C | 37% | 1019.4 hPa | 0 mm | 2.24 m/s, 69° | 252 W/m² | - |
| 1778011130 | 8.89° C | 37% | 1019.1 hPa | 0 mm | 3.13 m/s, 355° | 321 W/m² | - |
| 1778010828 | 8.89° C | 39% | 1019.4 hPa | 0 mm | 1.34 m/s, 348° | 366 W/m² | - |
| 1778010525 | 8.89° C | 37% | 1019.4 hPa | 0 mm | 4.02 m/s, 317° | 301 W/m² | - |
| 1778010223 | 8.89° C | 37% | 1019.3 hPa | 0 mm | 1.79 m/s, 331° | 271 W/m² | - |
| 1778009917 | 8.89° C | 37% | 1019.7 hPa | 0 mm | 1.34 m/s, 33° | 312 W/m² | - |
| 1778009616 | 8.89° C | 39% | 1019.7 hPa | 0 mm | 2.24 m/s, 10° | 304 W/m² | - |
| 1778009313 | 8.89° C | 39% | 1019.6 hPa | 0 mm | 2.68 m/s, 9° | 416 W/m² | - |
* Rain latest hour (hover to see other rain measurements)
** Current wind speed in m/s (hover to see current wind gust speed)